• în România
  • Lista ţărilor
  • Pe 7 zile
  • Temperatura apei
  • Hartă satelitară
  • Meteo pe hartă
  • Widget-uri
  • user-avatar
    Intrare

    Meteo pe oră la Zhlobin

    Astăzi, 21 Octombrie, Sâmbătă

    Timp Temperatura Precipitaţii Vânt Presiune Umiditate
    00:00 +4°C° 0 mm 2 m/s 754 mmHg 79%
    01:00 +4°C° 0 mm 2 m/s 754 mmHg 80%
    02:00 +5°C° 0 mm 1 m/s 753 mmHg 80%
    03:00 +5°C° 0 mm 1 m/s 753 mmHg 80%
    04:00 +5°C° 0 mm 1 m/s 753 mmHg 79%
    05:00 +5°C° 0 mm 1 m/s 753 mmHg 78%
    06:00 +5°C° 0 mm 2 m/s 753 mmHg 77%
    07:00 +5°C° 0 mm 2 m/s 753 mmHg 75%
    08:00 +5°C° 0 mm 2 m/s 753 mmHg 73%
    09:00 +6°C° 0 mm 2 m/s 753 mmHg 71%
    10:00 +7°C° 0 mm 2 m/s 752 mmHg 69%
    11:00 +7°C° 0 mm 2 m/s 752 mmHg 67%
    12:00 +7°C° 0,2 mm 2 m/s 752 mmHg 69%
    13:00 +7°C° 0,2 mm 2 m/s 751 mmHg 70%
    14:00 +7°C° 0,2 mm 2 m/s 751 mmHg 72%
    15:00 +5°C° 0,6 mm 3 m/s 751 mmHg 75%
    16:00 +5°C° 0,6 mm 3 m/s 750 mmHg 79%
    17:00 +5°C° 0,6 mm 3 m/s 750 mmHg 82%
    18:00 +4°C° 0,8 mm 3 m/s 750 mmHg 83%
    19:00 +4°C° 0,8 mm 3 m/s 750 mmHg 84%
    20:00 +4°C° 0,8 mm 3 m/s 750 mmHg 85%
    21:00 +4°C° 0,5 mm 3 m/s 750 mmHg 85%
    22:00 +3°C° 0,5 mm 3 m/s 750 mmHg 86%
    23:00 +3°C° 0,5 mm 3 m/s 751 mmHg 87%

    Mâine, 22 Octombrie, Duminică

    Timp Temperatura Precipitaţii Vânt Presiune Umiditate
    00:00 +3°C° 0 mm 3 m/s 751 mmHg 88%
    01:00 +2°C° 0 mm 3 m/s 751 mmHg 88%
    02:00 +1°C° 0 mm 3 m/s 751 mmHg 89%
    03:00 +1°C° 0 mm 3 m/s 751 mmHg 89%
    04:00 0°C° 0 mm 3 m/s 752 mmHg 89%
    05:00 0°C° 0 mm 3 m/s 752 mmHg 88%
    06:00 0°C° 0 mm 3 m/s 752 mmHg 88%
    07:00 0°C° 0 mm 3 m/s 752 mmHg 88%
    08:00 0°C° 0 mm 3 m/s 753 mmHg 87%
    09:00 +1°C° 0 mm 3 m/s 753 mmHg 80%
    10:00 +3°C° 0 mm 3 m/s 753 mmHg 73%
    11:00 +5°C° 0 mm 2 m/s 753 mmHg 66%
    12:00 +5°C° 0 mm 2 m/s 753 mmHg 62%
    13:00 +6°C° 0 mm 2 m/s 753 mmHg 58%
    14:00 +6°C° 0 mm 2 m/s 753 mmHg 54%
    15:00 +6°C° 0 mm 1 m/s 753 mmHg 58%
    16:00 +5°C° 0 mm 1 m/s 753 mmHg 63%
    17:00 +4°C° 0 mm 1 m/s 753 mmHg 67%
    18:00 +3°C° 0 mm 1 m/s 753 mmHg 69%
    19:00 +3°C° 0 mm 1 m/s 753 mmHg 70%
    20:00 +2°C° 0 mm 1 m/s 753 mmHg 72%
    21:00 +2°C° 0 mm 1 m/s 753 mmHg 73%
    22:00 +1°C° 0 mm 1 m/s 753 mmHg 75%
    23:00 +1°C° 0 mm 1 m/s 753 mmHg 76%

    Poimâine, 23 Octombrie, Luni

    Timp Temperatura Precipitaţii Vânt Presiune Umiditate
    00:00 +1°C° 0 mm 1 m/s 753 mmHg 77%
    01:00 +1°C° 0 mm 1 m/s 753 mmHg 77%
    02:00 +1°C° 0 mm 1 m/s 753 mmHg 78%
    03:00 +1°C° 0 mm 1 m/s 753 mmHg 79%
    04:00 +1°C° 0 mm 1 m/s 753 mmHg 79%
    05:00 +1°C° 0 mm 1 m/s 753 mmHg 79%
    06:00 +1°C° 0 mm 1 m/s 753 mmHg 77%
    07:00 +2°C° 0 mm 1 m/s 753 mmHg 75%
    08:00 +1°C° 0 mm 2 m/s 753 mmHg 74%
    09:00 +2°C° 0 mm 2 m/s 753 mmHg 68%
    10:00 +3°C° 0 mm 2 m/s 753 mmHg 63%
    11:00 +5°C° 0 mm 2 m/s 753 mmHg 57%
    12:00 +5°C° 0 mm 2 m/s 753 mmHg 55%
    13:00 +6°C° 0 mm 2 m/s 753 mmHg 52%
    14:00 +5°C° 0 mm 3 m/s 753 mmHg 50%
    15:00 +4°C° 0 mm 3 m/s 753 mmHg 54%
    16:00 +4°C° 0 mm 2 m/s 754 mmHg 59%
    17:00 +2°C° 0 mm 2 m/s 754 mmHg 64%
    18:00 +2°C° 0 mm 2 m/s 754 mmHg 65%
    19:00 0°C° 0 mm 3 m/s 754 mmHg 66%
    20:00 0°C° 0 mm 3 m/s 755 mmHg 67%
    21:00 -1°C° 0 mm 3 m/s 755 mmHg 68%
    22:00 -1°C° 0 mm 3 m/s 756 mmHg 69%
    23:00 -1°C° 0 mm 3 m/s 756 mmHg 71%

    24 Octombrie, Marţi

    Timp Temperatura Precipitaţii Vânt Presiune Umiditate
    00:00 -2°C° 0 mm 3 m/s 756 mmHg 72%
    01:00 -2°C° 0 mm 3 m/s 757 mmHg 73%
    02:00 -2°C° 0 mm 3 m/s 757 mmHg 74%
    03:00 -2°C° 0 mm 3 m/s 757 mmHg 75%
    04:00 -2°C° 0 mm 3 m/s 758 mmHg 76%
    05:00 -2°C° 0 mm 3 m/s 758 mmHg 77%
    06:00 -2°C° 0 mm 3 m/s 758 mmHg 76%
    07:00 -1°C° 0 mm 3 m/s 759 mmHg 75%
    08:00 -2°C° 0 mm 4 m/s 759 mmHg 74%
    09:00 -1°C° 0 mm 4 m/s 760 mmHg 69%
    10:00 0°C° 0 mm 4 m/s 760 mmHg 64%
    11:00 +3°C° 0 mm 4 m/s 761 mmHg 58%
    12:00 +3°C° 0 mm 4 m/s 761 mmHg 57%
    13:00 +3°C° 0 mm 4 m/s 761 mmHg 56%
    14:00 +4°C° 0 mm 4 m/s 761 mmHg 55%
    15:00 +3°C° 0 mm 4 m/s 761 mmHg 58%
    16:00 +2°C° 0 mm 3 m/s 761 mmHg 61%
    17:00 +1°C° 0 mm 3 m/s 762 mmHg 64%
    18:00 0°C° 0 mm 3 m/s 762 mmHg 65%
    19:00 0°C° 0 mm 3 m/s 762 mmHg 65%
    20:00 -1°C° 0 mm 3 m/s 763 mmHg 66%
    21:00 -1°C° 0 mm 3 m/s 763 mmHg 67%
    22:00 -1°C° 0 mm 3 m/s 763 mmHg 69%
    23:00 -2°C° 0 mm 3 m/s 764 mmHg 71%

    25 Octombrie, Miercuri

    Timp Temperatura Precipitaţii Vânt Presiune Umiditate
    00:00 -2°C° 0 mm 3 m/s 764 mmHg 72%
    01:00 -2°C° 0 mm 3 m/s 764 mmHg 73%
    02:00 -4°C° 0 mm 3 m/s 764 mmHg 73%
    03:00 -4°C° 0 mm 3 m/s 765 mmHg 74%
    04:00 -4°C° 0 mm 3 m/s 765 mmHg 75%
    05:00 -4°C° 0 mm 3 m/s 765 mmHg 76%
    06:00 -4°C° 0 mm 3 m/s 765 mmHg 74%
    07:00 -3°C° 0 mm 4 m/s 765 mmHg 72%
    08:00 -3°C° 0 mm 4 m/s 766 mmHg 70%
    09:00 -2°C° 0 mm 4 m/s 766 mmHg 64%
    10:00 0°C° 0 mm 4 m/s 766 mmHg 57%
    11:00 +1°C° 0 mm 5 m/s 766 mmHg 51%
    12:00 +1°C° 0 mm 4 m/s 766 mmHg 50%
    13:00 +3°C° 0 mm 4 m/s 766 mmHg 48%
    14:00 +3°C° 0 mm 4 m/s 766 mmHg 47%
    15:00 +1°C° 0 mm 4 m/s 766 mmHg 53%
    16:00 +1°C° 0 mm 3 m/s 766 mmHg 58%
    17:00 -1°C° 0 mm 3 m/s 766 mmHg 64%
    18:00 -1°C° 0 mm 3 m/s 766 mmHg 66%
    19:00 -1°C° 0 mm 3 m/s 766 mmHg 68%
    20:00 -2°C° 0 mm 3 m/s 766 mmHg 70%
    21:00 -2°C° 0 mm 3 m/s 767 mmHg 71%
    22:00 -2°C° 0 mm 3 m/s 767 mmHg 72%
    23:00 -4°C° 0 mm 3 m/s 767 mmHg 73%

    26 Octombrie, Joi

    Timp Temperatura Precipitaţii Vânt Presiune Umiditate
    00:00 -4°C° 0 mm 3 m/s 767 mmHg 74%
    01:00 -4°C° 0 mm 3 m/s 767 mmHg 75%
    02:00 -3°C° 0 mm 2 m/s 766 mmHg 76%
    03:00 -3°C° 0 mm 2 m/s 766 mmHg 77%
    04:00 -3°C° 0 mm 2 m/s 766 mmHg 79%
    05:00 -3°C° 0 mm 2 m/s 766 mmHg 80%
    06:00 -3°C° 0 mm 2 m/s 766 mmHg 78%
    07:00 -4°C° 0 mm 3 m/s 766 mmHg 76%
    08:00 -4°C° 0 mm 3 m/s 766 mmHg 75%
    09:00 -1°C° 0 mm 3 m/s 766 mmHg 66%
    10:00 +1°C° 0 mm 3 m/s 766 mmHg 57%
    11:00 +2°C° 0 mm 3 m/s 766 mmHg 48%
    12:00 +4°C° 0 mm 2 m/s 765 mmHg 46%
    13:00 +4°C° 0 mm 2 m/s 765 mmHg 44%
    14:00 +5°C° 0 mm 2 m/s 764 mmHg 42%
    15:00 +3°C° 0 mm 2 m/s 764 mmHg 47%
    16:00 +3°C° 0 mm 1 m/s 764 mmHg 53%
    17:00 +1°C° 0 mm 1 m/s 764 mmHg 58%
    18:00 +1°C° 0 mm 1 m/s 764 mmHg 60%
    19:00 +1°C° 0 mm 1 m/s 764 mmHg 62%
    20:00 0°C° 0 mm 1 m/s 764 mmHg 64%
    21:00 0°C° 0 mm 1 m/s 763 mmHg 64%
    22:00 -1°C° 0 mm 0 m/s 763 mmHg 64%
    23:00 -1°C° 0 mm 0 m/s 763 mmHg 64%
    Arată mai mult